Regional Weather Roundup
Issued by NWS

Home | Current Version | Previous Version | Graphics & Text | Print | Product List | Glossary Off
Versions: 1 2 3 4 5 6 7 8 9 10 11 12 13 14 15 16 17 18 19 20 21 22 23 24 25 26 27 28 29 30 31 32 33 34 35 36 37 38 39 40 41 42 43 44 45 46 47 48 49 50

738
ASUS43 KTOP 280508
RWRKS

WEATHER ROUNDUP FOR KANSAS
NATIONAL WEATHER SERVICE GOODLAND KS
1200 AM CDT THU JUL 28 2016

NOTE:  "FAIR" INDICATES FEW OR NO CLOUDS BELOW 12,000 FEET WITH NO
SIGNIFICANT WEATHER AND/OR OBSTRUCTIONS TO VISIBILITY.

KSZ001>006-013>018-027>032-041>047-280600-
NORTHWEST KANSAS

CITY           SKY/WX    TMP DP  RH WIND       PRES   REMARKS
GOODLAND       TSTM      64  60  87 S15G21    30.10F
HAYS           CLEAR     75  63  64 E6        30.04R
HILL CITY      CLOUDY    76  68  76 NE9       30.07R
RUSSELL        CLEAR     74  68  81 E7        30.01F
$$

KSZ061>065-074>080-084>089-280600-
SOUTHWEST KANSAS

CITY           SKY/WX    TMP DP  RH WIND       PRES   REMARKS
DODGE CITY     CLEAR     73  69  87 E6        30.05F
ELKHART          N/A     67  60  78 W8          N/A
GARDEN CITY    PTCLDY    72  67  84 NW6       30.09R
GREAT BEND     CLEAR     77  64  65 E5        30.02S
LIBERAL        CLOUDY    72  63  73 SE3       30.06F
PRATT          CLEAR     76  66  71 SE5       30.03S
$$

KSZ066>073-081>083-090>101-280600-
SOUTHEAST KANSAS

CITY           SKY/WX    TMP DP  RH WIND       PRES   REMARKS
CHANUTE        CLEAR     78  74  87 S5        29.96R
COFFEYVILLE    CLEAR     77  74  90 S3        29.95S
HUTCHINSON     CLEAR     74  69  85 E5        30.01R
MEDICINE LODGE   N/A     80  66  62 SE6       30.00R
NEWTON         CLEAR     79  72  79 SE3       30.01S
PARSONS        PTCLDY    77  74  90 CALM      29.97R
WICHITA INTL   PTCLDY    82  72  71 E3        29.99R
WICHITA JABRA  CLEAR     76  72  87 CALM      30.00R
WICHITA MCCONL CLEAR     81  73  77 SE3       29.99S
WINFIELD       CLEAR     79  72  79 CALM      29.99R
$$

KSZ007>012-019>026-033>040-048>060-102>105-280600-
NORTHEAST KANSAS

CITY           SKY/WX    TMP DP  RH WIND       PRES   REMARKS
CONCORDIA      CLEAR     74  68  81 N7        30.02R
EMPORIA        CLEAR     76  74  93 CALM      29.98S
LAWRENCE       CLEAR     69  68  96 E3        29.96S
MANHATTAN      CLEAR     73  70  90 CALM      29.98S
MARYSVILLE     CLEAR     72  68  88 N5        30.01R
OLATHE IND     CLEAR     78  72  81 NE3       29.97S
OLATHE EXE     CLEAR     80  70  71 CALM      29.97S
SALINA         CLEAR     78  70  76 SE3       29.99F
TOPEKA BILLARD   N/A     75  70  84 CALM      29.97R
TOPEKA FORBES  CLEAR     75  71  87 CALM      29.97F
$$




USA.gov is the U.S. government's official web portal to all federal, state and local government web resources and services.